Time,TemperatureF,DewpointF,PressureIn,WindDirection,WindDirectionDegrees,WindSpeedMPH,WindSpeedGustMPH,Humidity,HourlyPrecipIn,Conditions,Clouds,dailyrainin,SoftwareType,DateUTC
2013-03-05 00:00:00,22.0,18.5,30.03,West,270,1.0,7.0,86,0.00,,---,0.00,VWS V14.01,2013-03-05 05:00:00,
2013-03-05 00:01:00,22.0,18.5,30.03,NNW,338,2.0,3.0,86,0.00,,---,0.00,VWS V14.01,2013-03-05 05:01:00,
2013-03-05 00:06:00,21.0,17.5,30.03,NW,315,1.0,10.0,86,0.00,,---,0.00,VWS V14.01,2013-03-05 05:06:00,
2013-03-05 00:11:00,21.0,17.5,30.03,WNW,292,1.0,10.0,86,0.00,,---,0.00,VWS V14.01,2013-03-05 05:11:00,
2013-03-05 00:17:00,21.0,17.5,30.03,NNW,338,2.0,10.0,86,0.00,,---,0.00,VWS V14.01,2013-03-05 05:17:00,
2013-03-05 00:22:00,21.0,17.5,30.03,NNW,338,1.0,5.0,86,0.00,,---,0.00,VWS V14.01,2013-03-05 05:22:00,
2013-03-05 00:27:00,21.0,17.5,30.03,NW,315,5.0,6.0,86,0.00,,---,0.00,VWS V14.01,2013-03-05 05:27:00,
2013-03-05 00:32:00,21.0,17.8,30.03,WNW,292,1.0,6.0,87,0.00,,---,0.00,VWS V14.01,2013-03-05 05:32:00,
2013-03-05 00:37:00,20.0,16.8,30.04,WNW,292,1.0,6.0,87,0.00,,---,0.00,VWS V14.01,2013-03-05 05:37:00,
2013-03-05 00:42:00,20.0,16.8,30.03,WNW,292,3.0,5.0,87,0.00,,---,0.00,VWS V14.01,2013-03-05 05:42:00,
2013-03-05 00:47:00,20.0,16.8,30.04,WNW,292,2.0,5.0,87,0.00,,---,0.00,VWS V14.01,2013-03-05 05:47:00,
2013-03-05 00:52:00,20.0,17.0,30.04,NW,315,1.0,5.0,88,0.00,,---,0.00,VWS V14.01,2013-03-05 05:52:00,
2013-03-05 00:57:00,20.0,17.0,30.04,NW,315,1.0,5.0,88,0.00,,---,0.00,VWS V14.01,2013-03-05 05:57:00,
2013-03-05 01:02:00,20.0,17.0,30.04,WNW,292,0.0,3.0,88,0.00,,---,0.00,VWS V14.01,2013-03-05 06:02:00,
2013-03-05 01:07:00,20.0,17.0,30.04,WNW,292,1.0,3.0,88,0.00,,---,0.00,VWS V14.01,2013-03-05 06:07:00,
2013-03-05 01:13:00,20.0,17.3,30.04,NW,315,0.0,4.0,89,0.00,,---,0.00,VWS V14.01,2013-03-05 06:13:00,
2013-03-05 01:18:00,20.0,17.3,30.04,WNW,292,1.0,5.0,89,0.00,,---,0.00,VWS V14.01,2013-03-05 06:18:00,
2013-03-05 01:23:00,20.0,17.3,30.04,NW,315,1.0,5.0,89,0.00,,---,0.00,VWS V14.01,2013-03-05 06:23:00,
2013-03-05 01:28:00,20.0,17.3,30.05,WNW,292,1.0,5.0,89,0.00,,---,0.00,VWS V14.01,2013-03-05 06:28:00,
2013-03-05 01:33:00,20.0,17.3,30.05,West,270,3.0,6.0,89,0.00,,---,0.00,VWS V14.01,2013-03-05 06:33:00,
2013-03-05 01:38:00,20.0,17.3,30.04,West,270,3.0,6.0,89,0.00,,---,0.00,VWS V14.01,2013-03-05 06:38:00,
2013-03-05 01:43:00,20.0,17.3,30.04,West,270,2.0,4.0,89,0.00,,---,0.00,VWS V14.01,2013-03-05 06:43:00,
2013-03-05 01:48:00,20.0,17.3,30.05,WSW,248,4.0,5.0,89,0.00,,---,0.00,VWS V14.01,2013-03-05 06:48:00,
2013-03-05 01:53:00,20.0,17.0,30.05,SW,225,3.0,5.0,88,0.00,,---,0.00,VWS V14.01,2013-03-05 06:53:00,
2013-03-05 01:58:00,20.0,17.0,30.05,WSW,248,3.0,5.0,88,0.00,,---,0.00,VWS V14.01,2013-03-05 06:58:00,
2013-03-05 02:03:00,20.0,17.0,30.05,West,270,3.0,5.0,88,0.00,,---,0.00,VWS V14.01,2013-03-05 07:03:00,
2013-03-05 02:08:00,20.0,17.0,30.05,West,270,4.0,5.0,88,0.00,,---,0.00,VWS V14.01,2013-03-05 07:08:00,
2013-03-05 02:13:00,20.0,17.0,30.05,WNW,292,3.0,5.0,88,0.00,,---,0.00,VWS V14.01,2013-03-05 07:13:00,
2013-03-05 02:19:00,20.0,17.0,30.05,WNW,292,2.0,5.0,88,0.00,,---,0.00,VWS V14.01,2013-03-05 07:19:00,
2013-03-05 02:24:00,21.0,18.0,30.04,WSW,248,3.0,4.0,88,0.00,,---,0.00,VWS V14.01,2013-03-05 07:24:00,
2013-03-05 02:29:00,21.0,18.0,30.05,West,270,3.0,5.0,88,0.00,,---,0.00,VWS V14.01,2013-03-05 07:29:00,
2013-03-05 02:34:00,21.0,18.0,30.04,WSW,248,3.0,5.0,88,0.00,,---,0.00,VWS V14.01,2013-03-05 07:34:00,
2013-03-05 02:39:00,21.0,18.0,30.04,West,270,4.0,5.0,88,0.00,,---,0.00,VWS V14.01,2013-03-05 07:39:00,
2013-03-05 02:44:00,21.0,18.0,30.04,West,270,3.0,5.0,88,0.00,,---,0.00,VWS V14.01,2013-03-05 07:44:00,
2013-03-05 02:49:00,21.0,18.0,30.04,West,270,3.0,5.0,88,0.00,,---,0.00,VWS V14.01,2013-03-05 07:49:00,
2013-03-05 02:54:00,21.0,18.0,30.04,WSW,248,2.0,5.0,88,0.00,,---,0.00,VWS V14.01,2013-03-05 07:54:00,
2013-03-05 02:59:00,21.0,18.0,30.04,WSW,248,2.0,5.0,88,0.00,,---,0.00,VWS V14.01,2013-03-05 07:59:00,
2013-03-05 03:04:00,21.0,18.0,30.04,WSW,248,3.0,3.0,88,0.00,,---,0.00,VWS V14.01,2013-03-05 08:04:00,
2013-03-05 03:09:00,21.0,18.0,30.04,West,270,3.0,4.0,88,0.00,,---,0.00,VWS V14.01,2013-03-05 08:09:00,
2013-03-05 03:14:00,21.0,18.0,30.04,WNW,292,3.0,5.0,88,0.00,,---,0.00,VWS V14.01,2013-03-05 08:14:00,
2013-03-05 03:20:00,21.0,18.3,30.04,WSW,248,5.0,5.0,89,0.00,,---,0.00,VWS V14.01,2013-03-05 08:20:00,
2013-03-05 03:25:00,21.0,18.3,30.04,WSW,248,4.0,6.0,89,0.00,,---,0.00,VWS V14.01,2013-03-05 08:25:00,
2013-03-05 03:30:00,21.0,18.3,30.04,West,270,3.0,6.0,89,0.00,,---,0.00,VWS V14.01,2013-03-05 08:30:00,
2013-03-05 03:35:00,21.0,18.3,30.04,WSW,248,3.0,6.0,89,0.00,,---,0.00,VWS V14.01,2013-03-05 08:35:00,
2013-03-05 03:40:00,21.0,18.3,30.05,WNW,292,3.0,6.0,89,0.00,,---,0.00,VWS V14.01,2013-03-05 08:40:00,
2013-03-05 03:45:00,21.0,18.3,30.04,WNW,292,2.0,5.0,89,0.00,,---,0.00,VWS V14.01,2013-03-05 08:45:00,
2013-03-05 03:50:00,21.0,18.5,30.04,WNW,292,2.0,5.0,90,0.00,,---,0.00,VWS V14.01,2013-03-05 08:50:00,
2013-03-05 03:55:00,21.0,18.5,30.04,West,270,1.0,5.0,90,0.00,,---,0.00,VWS V14.01,2013-03-05 08:55:00,
2013-03-05 04:00:00,21.0,18.5,30.04,WSW,248,2.0,6.0,90,0.00,,---,0.00,VWS V14.01,2013-03-05 09:00:00,
2013-03-05 04:06:00,21.0,18.5,30.04,West,270,3.0,5.0,90,0.00,,---,0.00,VWS V14.01,2013-03-05 09:06:00,
2013-03-05 04:11:00,21.0,18.5,30.04,WNW,292,3.0,5.0,90,0.00,,---,0.00,VWS V14.01,2013-03-05 09:11:00,
2013-03-05 04:16:00,21.0,18.5,30.04,West,270,2.0,6.0,90,0.00,,---,0.00,VWS V14.01,2013-03-05 09:16:00,
2013-03-05 04:21:00,21.0,18.5,30.04,WNW,292,3.0,4.0,90,0.00,,---,0.00,VWS V14.01,2013-03-05 09:21:00,
2013-03-05 04:26:00,21.0,18.8,30.04,SW,225,3.0,6.0,91,0.00,,---,0.00,VWS V14.01,2013-03-05 09:26:00,
2013-03-05 04:31:00,21.0,18.8,30.04,West,270,3.0,6.0,91,0.00,,---,0.00,VWS V14.01,2013-03-05 09:31:00,
2013-03-05 04:36:00,21.0,18.8,30.04,WNW,292,3.0,6.0,91,0.00,,---,0.00,VWS V14.01,2013-03-05 09:36:00,
2013-03-05 04:41:00,21.0,18.8,30.04,NW,315,0.0,1.0,91,0.00,,---,0.00,VWS V14.01,2013-03-05 09:41:00,
2013-03-05 04:47:00,21.0,18.8,30.04,NNW,338,1.0,1.0,91,0.00,,---,0.00,VWS V14.01,2013-03-05 09:47:00,
2013-03-05 04:52:00,21.0,18.8,30.04,West,270,1.0,3.0,91,0.00,,---,0.00,VWS V14.01,2013-03-05 09:52:00,
2013-03-05 04:57:00,21.0,18.8,30.04,NNW,338,0.0,3.0,91,0.00,,---,0.00,VWS V14.01,2013-03-05 09:57:00,
2013-03-05 05:02:00,21.0,19.0,30.04,NNW,338,1.0,2.0,92,0.00,,---,0.00,VWS V14.01,2013-03-05 10:02:00,
2013-03-05 05:07:00,21.0,19.0,30.04,NW,315,1.0,2.0,92,0.00,,---,0.00,VWS V14.01,2013-03-05 10:07:00,
2013-03-05 05:12:00,21.0,19.0,30.04,NNW,338,3.0,4.0,92,0.00,,---,0.00,VWS V14.01,2013-03-05 10:12:00,
2013-03-05 05:17:00,21.0,19.0,30.04,North,0,1.0,5.0,92,0.00,,---,0.00,VWS V14.01,2013-03-05 10:17:00,
2013-03-05 05:22:00,21.0,19.3,30.04,NNW,338,3.0,5.0,93,0.00,,---,0.00,VWS V14.01,2013-03-05 10:22:00,
2013-03-05 05:27:00,21.0,19.3,30.04,NNW,338,3.0,5.0,93,0.00,,---,0.00,VWS V14.01,2013-03-05 10:27:00,
2013-03-05 05:32:00,21.0,19.3,30.04,NNW,338,1.0,5.0,93,0.00,,---,0.00,VWS V14.01,2013-03-05 10:32:00,
2013-03-05 05:38:00,21.0,19.3,30.04,NNW,338,1.0,5.0,93,0.00,,---,0.00,VWS V14.01,2013-03-05 10:38:00,
2013-03-05 05:43:00,21.0,19.3,30.04,NNW,338,2.0,4.0,93,0.00,,---,0.00,VWS V14.01,2013-03-05 10:43:00,
2013-03-05 05:48:00,21.0,19.3,30.04,NNW,338,1.0,4.0,93,0.00,,---,0.00,VWS V14.01,2013-03-05 10:48:00,
2013-03-05 05:53:00,21.0,19.5,30.04,NNW,338,0.0,4.0,94,0.00,,---,0.00,VWS V14.01,2013-03-05 10:53:00,
2013-03-05 05:58:00,21.0,19.5,30.04,NNW,338,1.0,4.0,94,0.00,,---,0.00,VWS V14.01,2013-03-05 10:58:00,
2013-03-05 06:03:00,21.0,19.5,30.04,NNW,338,3.0,4.0,94,0.00,,---,0.00,VWS V14.01,2013-03-05 11:03:00,
2013-03-05 06:08:00,21.0,19.5,30.04,North,0,1.0,4.0,94,0.00,,---,0.00,VWS V14.01,2013-03-05 11:08:00,
2013-03-05 06:13:00,21.0,19.5,30.04,NNW,338,1.0,5.0,94,0.00,,---,0.00,VWS V14.01,2013-03-05 11:13:00,
2013-03-05 06:18:00,21.0,19.5,30.03,NNW,338,0.0,5.0,94,0.00,,---,0.00,VWS V14.01,2013-03-05 11:18:00,
2013-03-05 06:24:00,21.0,19.5,30.03,NNW,338,0.0,1.0,94,0.00,,---,0.00,VWS V14.01,2013-03-05 11:24:00,
2013-03-05 06:29:00,21.0,19.5,30.03,WNW,292,0.0,2.0,94,0.00,,---,0.00,VWS V14.01,2013-03-05 11:29:00,
2013-03-05 06:34:00,21.0,19.5,30.03,NW,315,1.0,3.0,94,0.00,,---,0.00,VWS V14.01,2013-03-05 11:34:00,
2013-03-05 06:39:00,21.0,19.5,30.03,NW,315,1.0,3.0,94,0.00,,---,0.00,VWS V14.01,2013-03-05 11:39:00,
2013-03-05 06:44:00,21.0,19.5,30.03,WNW,292,0.0,2.0,94,0.00,,---,0.00,VWS V14.01,2013-03-05 11:44:00,
2013-03-05 06:49:00,21.0,19.5,30.03,North,0,1.0,3.0,94,0.00,,---,0.00,VWS V14.01,2013-03-05 11:49:00,
2013-03-05 06:54:00,21.0,19.5,30.03,North,0,1.0,3.0,94,0.00,,---,0.00,VWS V14.01,2013-03-05 11:54:00,
2013-03-05 06:59:00,21.0,19.5,30.04,NNW,338,0.0,3.0,94,0.00,,---,0.00,VWS V14.01,2013-03-05 11:59:00,
2013-03-05 07:05:00,21.0,19.5,30.04,NNW,338,1.0,2.0,94,0.00,,---,0.00,VWS V14.01,2013-03-05 12:05:00,
2013-03-05 07:10:00,21.0,19.5,30.04,NNE,22,1.0,2.0,94,0.00,,---,0.00,VWS V14.01,2013-03-05 12:10:00,
2013-03-05 07:15:00,21.0,19.5,30.04,NNE,22,3.0,3.0,94,0.00,,---,0.00,VWS V14.01,2013-03-05 12:15:00,
2013-03-05 07:20:00,21.0,19.5,30.03,NE,45,2.0,5.0,94,0.00,,---,0.00,VWS V14.01,2013-03-05 12:20:00,
2013-03-05 07:25:00,21.0,19.5,30.04,NE,45,3.0,6.0,94,0.00,,---,0.00,VWS V14.01,2013-03-05 12:25:00,
2013-03-05 07:30:00,21.0,19.5,30.04,NNW,338,1.0,8.0,94,0.00,,---,0.00,VWS V14.01,2013-03-05 12:30:00,
2013-03-05 07:35:00,21.0,19.5,30.03,NNW,338,1.0,8.0,94,0.00,,---,0.00,VWS V14.01,2013-03-05 12:35:00,
2013-03-05 07:41:00,21.0,19.5,30.03,NNW,338,1.0,2.0,94,0.00,,---,0.00,VWS V14.01,2013-03-05 12:41:00,
2013-03-05 07:46:00,21.0,19.5,30.03,NNW,338,1.0,2.0,94,0.00,,---,0.00,VWS V14.01,2013-03-05 12:46:00,
2013-03-05 07:51:00,21.0,19.5,30.04,NE,45,1.0,3.0,94,0.00,,---,0.00,VWS V14.01,2013-03-05 12:51:00,
2013-03-05 07:56:00,21.0,19.5,30.04,NNE,22,4.0,4.0,94,0.00,,---,0.00,VWS V14.01,2013-03-05 12:56:00,
2013-03-05 08:01:00,21.0,19.5,30.03,NE,45,1.0,3.0,94,0.00,,---,0.00,VWS V14.01,2013-03-05 13:01:00,
2013-03-05 08:06:00,21.0,19.5,30.03,ENE,68,1.0,3.0,94,0.00,,---,0.00,VWS V14.01,2013-03-05 13:06:00,
2013-03-05 08:12:00,21.0,19.5,30.03,NNE,22,2.0,3.0,94,0.00,,---,0.00,VWS V14.01,2013-03-05 13:12:00,
2013-03-05 08:17:00,21.0,19.5,30.03,NNE,22,0.0,3.0,94,0.00,,---,0.00,VWS V14.01,2013-03-05 13:17:00,
2013-03-05 08:22:00,21.0,19.3,30.03,NE,45,1.0,2.0,93,0.00,,---,0.00,VWS V14.01,2013-03-05 13:22:00,
2013-03-05 08:27:00,21.0,19.3,30.04,ENE,68,1.0,5.0,93,0.00,,---,0.00,VWS V14.01,2013-03-05 13:27:00,
2013-03-05 08:32:00,22.0,20.3,30.04,NE,45,1.0,5.0,93,0.00,,---,0.00,VWS V14.01,2013-03-05 13:32:00,
2013-03-05 08:37:00,22.0,20.3,30.04,NNE,22,1.0,5.0,93,0.00,,---,0.00,VWS V14.01,2013-03-05 13:37:00,
2013-03-05 08:42:00,22.0,20.3,30.03,NNE,22,1.0,1.0,93,0.00,,---,0.00,VWS V14.01,2013-03-05 13:42:00,
2013-03-05 08:47:00,22.0,20.3,30.03,East,90,1.0,3.0,93,0.00,,---,0.00,VWS V14.01,2013-03-05 13:47:00,
2013-03-05 08:52:00,22.0,20.0,30.03,NE,45,1.0,5.0,92,0.00,,---,0.00,VWS V14.01,2013-03-05 13:52:00,
2013-03-05 08:57:00,22.0,20.3,30.03,ENE,68,4.0,5.0,93,0.00,,---,0.00,VWS V14.01,2013-03-05 13:57:00,
2013-03-05 09:03:00,22.0,20.3,30.03,ENE,68,3.0,4.0,93,0.00,,---,0.00,VWS V14.01,2013-03-05 14:03:00,
2013-03-05 09:08:00,22.0,20.0,30.03,ENE,68,2.0,5.0,92,0.00,,---,0.00,VWS V14.01,2013-03-05 14:08:00,
2013-03-05 09:13:00,22.0,20.0,30.03,NNE,22,1.0,5.0,92,0.00,,---,0.00,VWS V14.01,2013-03-05 14:13:00,
2013-03-05 09:18:00,22.0,20.0,30.03,NNE,22,3.0,5.0,92,0.00,,---,0.00,VWS V14.01,2013-03-05 14:18:00,
2013-03-05 09:23:00,22.0,20.0,30.03,NE,45,2.0,2.0,92,0.00,,---,0.00,VWS V14.01,2013-03-05 14:23:00,
2013-03-05 09:28:00,23.0,21.0,30.03,NNE,22,1.0,4.0,92,0.00,,---,0.00,VWS V14.01,2013-03-05 14:28:00,
2013-03-05 09:33:00,22.0,19.8,30.03,East,90,1.0,5.0,91,0.00,,---,0.00,VWS V14.01,2013-03-05 14:33:00,
2013-03-05 09:38:00,22.0,19.5,30.03,ENE,68,2.0,5.0,90,0.00,,---,0.00,VWS V14.01,2013-03-05 14:38:00,
2013-03-05 09:43:00,22.0,19.5,30.02,NNE,22,1.0,5.0,90,0.00,,---,0.00,VWS V14.01,2013-03-05 14:43:00,
2013-03-05 09:49:00,22.0,19.5,30.02,NE,45,1.0,5.0,90,0.00,,---,0.00,VWS V14.01,2013-03-05 14:49:00,
2013-03-05 09:54:00,22.0,19.3,30.02,East,90,4.0,6.0,89,0.00,,---,0.00,VWS V14.01,2013-03-05 14:54:00,
2013-03-05 09:59:00,23.0,20.2,30.02,ENE,68,4.0,6.0,89,0.00,,---,0.00,VWS V14.01,2013-03-05 14:59:00,
2013-03-05 10:04:00,22.0,19.3,30.02,ENE,68,1.0,10.0,89,0.00,,---,0.00,VWS V14.01,2013-03-05 15:04:00,
2013-03-05 10:09:00,23.0,20.5,30.02,ENE,68,3.0,10.0,90,0.00,,---,0.00,VWS V14.01,2013-03-05 15:09:00,
2013-03-05 10:14:00,23.0,20.2,30.01,ENE,68,1.0,10.0,89,0.00,,---,0.00,VWS V14.01,2013-03-05 15:14:00,
2013-03-05 10:19:00,23.0,20.0,30.01,NE,45,3.0,10.0,88,0.00,,---,0.00,VWS V14.01,2013-03-05 15:19:00,
2013-03-05 10:24:00,23.0,20.0,30.01,NE,45,2.0,6.0,88,0.00,,---,0.00,VWS V14.01,2013-03-05 15:24:00,
2013-03-05 10:30:00,23.0,19.7,30.01,ESE,112,3.0,7.0,87,0.00,,---,0.00,VWS V14.01,2013-03-05 15:30:00,
2013-03-05 10:35:00,23.0,19.7,30.01,ESE,112,3.0,7.0,87,0.00,,---,0.00,VWS V14.01,2013-03-05 15:35:00,
2013-03-05 10:40:00,23.0,20.0,30.01,ENE,68,3.0,7.0,88,0.00,,---,0.00,VWS V14.01,2013-03-05 15:40:00,
2013-03-05 10:45:00,24.0,21.0,30.01,ESE,112,2.0,5.0,88,0.00,,---,0.00,VWS V14.01,2013-03-05 15:45:00,
2013-03-05 10:50:00,24.0,20.7,30.00,ENE,68,5.0,9.0,87,0.00,,---,0.00,VWS V14.01,2013-03-05 15:50:00,
2013-03-05 10:55:00,24.0,20.4,30.00,East,90,4.0,9.0,86,0.00,,---,0.00,VWS V14.01,2013-03-05 15:55:00,
2013-03-05 11:00:00,24.0,20.4,30.00,ENE,68,4.0,9.0,86,0.00,,---,0.00,VWS V14.01,2013-03-05 16:00:00,
2013-03-05 11:05:00,24.0,20.1,30.01,SE,135,3.0,8.0,85,0.00,,---,0.00,VWS V14.01,2013-03-05 16:05:00,
2013-03-05 11:10:00,25.0,21.7,30.01,ENE,68,2.0,8.0,87,0.00,,---,0.00,VWS V14.01,2013-03-05 16:10:00,
2013-03-05 11:16:00,25.0,21.4,30.01,ESE,112,3.0,8.0,86,0.00,,---,0.00,VWS V14.01,2013-03-05 16:16:00,
2013-03-05 11:21:00,25.0,21.1,30.01,East,90,1.0,3.0,85,0.00,,---,0.00,VWS V14.01,2013-03-05 16:21:00,
2013-03-05 11:26:00,26.0,21.6,30.01,East,90,3.0,7.0,83,0.00,,---,0.00,VWS V14.01,2013-03-05 16:26:00,
2013-03-05 11:31:00,25.0,20.6,30.01,SSE,158,2.0,7.0,83,0.00,,---,0.00,VWS V14.01,2013-03-05 16:31:00,
2013-03-05 11:36:00,26.0,21.6,30.00,SE,135,3.0,7.0,83,0.00,,---,0.00,VWS V14.01,2013-03-05 16:36:00,
2013-03-05 11:41:00,27.0,22.0,30.01,NNE,22,3.0,4.0,81,0.00,,---,0.00,VWS V14.01,2013-03-05 16:41:00,
2013-03-05 11:46:00,27.0,21.7,30.01,ESE,112,1.0,6.0,80,0.00,,---,0.00,VWS V14.01,2013-03-05 16:46:00,
2013-03-05 11:51:00,27.0,21.4,30.01,ESE,112,5.0,7.0,79,0.00,,---,0.00,VWS V14.01,2013-03-05 16:51:00,
2013-03-05 11:57:00,27.0,21.1,30.00,NE,45,4.0,7.0,78,0.00,,---,0.00,VWS V14.01,2013-03-05 16:57:00,
2013-03-05 12:02:00,28.0,22.0,30.00,NNW,338,1.0,3.0,78,0.00,,---,0.00,VWS V14.01,2013-03-05 17:02:00,
2013-03-05 12:07:00,29.0,22.4,30.00,ESE,112,3.0,8.0,76,0.00,,---,0.00,VWS V14.01,2013-03-05 17:07:00,
2013-03-05 12:12:00,27.0,20.5,30.00,SE,135,3.0,8.0,76,0.00,,---,0.00,VWS V14.01,2013-03-05 17:12:00,
2013-03-05 12:17:00,28.0,21.4,30.00,East,90,4.0,8.0,76,0.00,,---,0.00,VWS V14.01,2013-03-05 17:17:00,
2013-03-05 12:22:00,28.0,21.4,30.00,ESE,112,2.0,5.0,76,0.00,,---,0.00,VWS V14.01,2013-03-05 17:22:00,
2013-03-05 12:27:00,29.0,22.4,29.99,SSE,158,4.0,6.0,76,0.00,,---,0.00,VWS V14.01,2013-03-05 17:27:00,
2013-03-05 12:33:00,29.0,22.1,29.99,SE,135,3.0,6.0,75,0.00,,---,0.00,VWS V14.01,2013-03-05 17:33:00,
2013-03-05 12:38:00,29.0,21.8,29.99,ESE,112,3.0,8.0,74,0.00,,---,0.00,VWS V14.01,2013-03-05 17:38:00,
2013-03-05 12:43:00,30.0,22.7,29.98,SE,135,3.0,5.0,74,0.00,,---,0.00,VWS V14.01,2013-03-05 17:43:00,
2013-03-05 12:48:00,30.0,22.4,29.98,SE,135,5.0,7.0,73,0.01,,---,0.01,VWS V14.01,2013-03-05 17:48:00,
2013-03-05 12:53:00,30.0,22.1,29.98,SE,135,3.0,7.0,72,0.01,,---,0.01,VWS V14.01,2013-03-05 17:53:00,
2013-03-05 12:58:00,31.0,23.0,29.98,NE,45,5.0,7.0,72,0.01,,---,0.01,VWS V14.01,2013-03-05 17:58:00,
2013-03-05 13:03:00,32.0,23.7,29.98,ESE,112,5.0,5.0,71,0.01,,---,0.01,VWS V14.01,2013-03-05 18:03:00,
2013-03-05 13:09:00,33.0,24.3,29.97,NNW,338,4.0,6.0,70,0.01,,---,0.01,VWS V14.01,2013-03-05 18:09:00,
2013-03-05 13:14:00,34.0,24.2,29.97,SSW,202,2.0,6.0,67,0.01,,---,0.01,VWS V14.01,2013-03-05 18:14:00,
2013-03-05 13:19:00,33.0,22.5,29.96,East,90,2.0,7.0,65,0.01,,---,0.01,VWS V14.01,2013-03-05 18:19:00,
2013-03-05 13:24:00,32.0,21.9,29.96,ENE,68,8.0,9.0,66,0.01,,---,0.01,VWS V14.01,2013-03-05 18:24:00,
2013-03-05 13:29:00,33.0,22.9,29.95,ENE,68,5.0,11.0,66,0.01,,---,0.01,VWS V14.01,2013-03-05 18:29:00,
2013-03-05 13:34:00,32.0,22.6,29.95,ESE,112,2.0,11.0,68,0.01,,---,0.01,VWS V14.01,2013-03-05 18:34:00,
2013-03-05 13:39:00,33.0,23.2,29.94,East,90,4.0,11.0,67,0.01,,---,0.01,VWS V14.01,2013-03-05 18:39:00,
2013-03-05 13:44:00,32.0,21.9,29.95,East,90,3.0,5.0,66,0.01,,---,0.01,VWS V14.01,2013-03-05 18:44:00,
2013-03-05 13:49:00,33.0,23.2,29.94,SSE,158,3.0,5.0,67,0.01,,---,0.01,VWS V14.01,2013-03-05 18:49:00,
2013-03-05 13:55:00,33.0,22.5,29.94,NNE,22,3.0,8.0,65,0.01,,---,0.01,VWS V14.01,2013-03-05 18:55:00,
2013-03-05 14:00:00,34.0,23.5,29.94,ESE,112,2.0,8.0,65,0.01,,---,0.01,VWS V14.01,2013-03-05 19:00:00,
2013-03-05 14:05:00,33.0,22.5,29.94,ESE,112,3.0,8.0,65,0.00,,---,0.01,VWS V14.01,2013-03-05 19:05:00,
2013-03-05 14:10:00,34.0,23.1,29.93,NE,45,5.0,8.0,64,0.00,,---,0.01,VWS V14.01,2013-03-05 19:10:00,
2013-03-05 14:15:00,35.0,23.7,29.93,ENE,68,3.0,8.0,63,0.00,,---,0.01,VWS V14.01,2013-03-05 19:15:00,
2013-03-05 14:20:00,35.0,24.1,29.93,NNE,22,3.0,8.0,64,0.00,,---,0.01,VWS V14.01,2013-03-05 19:20:00,
2013-03-05 14:25:00,33.0,21.8,29.92,ENE,68,8.0,12.0,63,0.00,,---,0.01,VWS V14.01,2013-03-05 19:25:00,
2013-03-05 14:30:00,33.0,22.5,29.92,ENE,68,5.0,12.0,65,0.00,,---,0.01,VWS V14.01,2013-03-05 19:30:00,
2013-03-05 14:36:00,33.0,22.9,29.92,East,90,3.0,12.0,66,0.00,,---,0.01,VWS V14.01,2013-03-05 19:36:00,
2013-03-05 14:41:00,34.0,23.1,29.92,ESE,112,7.0,7.0,64,0.00,,---,0.01,VWS V14.01,2013-03-05 19:41:00,
2013-03-05 14:46:00,34.0,23.5,29.91,ESE,112,3.0,8.0,65,0.00,,---,0.01,VWS V14.01,2013-03-05 19:46:00,
2013-03-05 14:51:00,35.0,23.7,29.91,ESE,112,2.0,8.0,63,0.00,,---,0.01,VWS V14.01,2013-03-05 19:51:00,
2013-03-05 14:56:00,35.0,23.3,29.91,ENE,68,4.0,8.0,62,0.00,,---,0.01,VWS V14.01,2013-03-05 19:56:00,
2013-03-05 15:02:00,36.0,24.3,29.91,ENE,68,4.0,6.0,62,0.00,,---,0.01,VWS V14.01,2013-03-05 20:02:00,
2013-03-05 15:07:00,36.0,24.3,29.91,East,90,5.0,7.0,62,0.01,,---,0.02,VWS V14.01,2013-03-05 20:07:00,
2013-03-05 15:12:00,35.0,22.9,29.90,NE,45,3.0,8.0,61,0.03,,---,0.04,VWS V14.01,2013-03-05 20:12:00,
2013-03-05 15:17:00,36.0,24.3,29.90,ENE,68,3.0,8.0,62,0.05,,---,0.06,VWS V14.01,2013-03-05 20:17:00,
2013-03-05 15:22:00,36.0,23.5,29.90,ESE,112,3.0,6.0,60,0.07,,---,0.08,VWS V14.01,2013-03-05 20:22:00,
2013-03-05 15:27:00,36.0,24.3,29.90,NNE,22,5.0,9.0,62,0.09,,---,0.10,VWS V14.01,2013-03-05 20:27:00,
2013-03-05 15:32:00,36.0,24.3,29.89,ENE,68,3.0,10.0,62,0.11,,---,0.12,VWS V14.01,2013-03-05 20:32:00,
2013-03-05 15:38:00,36.0,23.5,29.89,East,90,3.0,10.0,60,0.13,,---,0.14,VWS V14.01,2013-03-05 20:38:00,
2013-03-05 15:43:00,36.0,23.1,29.89,ENE,68,1.0,8.0,59,0.14,,---,0.15,VWS V14.01,2013-03-05 20:43:00,
2013-03-05 15:48:00,36.0,23.5,29.89,SSE,158,3.0,9.0,60,0.15,,---,0.16,VWS V14.01,2013-03-05 20:48:00,
2013-03-05 15:53:00,36.0,23.9,29.89,NNE,22,5.0,9.0,61,0.16,,---,0.17,VWS V14.01,2013-03-05 20:53:00,
2013-03-05 15:58:00,37.0,24.8,29.88,NE,45,5.0,9.0,61,0.17,,---,0.18,VWS V14.01,2013-03-05 20:58:00,
2013-03-05 16:03:00,37.0,24.4,29.88,ESE,112,1.0,8.0,60,0.17,,---,0.18,VWS V14.01,2013-03-05 21:03:00,
2013-03-05 16:08:00,37.0,24.4,29.88,SSE,158,3.0,8.0,60,0.18,,---,0.19,VWS V14.01,2013-03-05 21:08:00,
2013-03-05 16:13:00,37.0,24.4,29.88,East,90,6.0,8.0,60,0.19,,---,0.20,VWS V14.01,2013-03-05 21:13:00,
2013-03-05 16:18:00,37.0,24.4,29.88,ENE,68,5.0,9.0,60,0.19,,---,0.20,VWS V14.01,2013-03-05 21:18:00,
2013-03-05 16:24:00,36.0,23.5,29.88,ENE,68,6.0,10.0,60,0.13,,---,0.21,VWS V14.01,2013-03-05 21:24:00,
2013-03-05 16:29:00,36.0,23.9,29.87,ENE,68,2.0,10.0,61,0.13,,---,0.21,VWS V14.01,2013-03-05 21:29:00,
2013-03-05 16:34:00,36.0,23.9,29.87,ENE,68,4.0,10.0,61,0.14,,---,0.22,VWS V14.01,2013-03-05 21:34:00,
2013-03-05 16:39:00,36.0,23.9,29.87,East,90,3.0,11.0,61,0.14,,---,0.22,VWS V14.01,2013-03-05 21:39:00,
2013-03-05 16:44:00,36.0,24.3,29.87,ENE,68,3.0,8.0,62,0.08,,---,0.22,VWS V14.01,2013-03-05 21:44:00,
2013-03-05 16:49:00,36.0,23.9,29.87,ESE,112,7.0,10.0,61,0.08,,---,0.22,VWS V14.01,2013-03-05 21:49:00,
2013-03-05 16:54:00,36.0,24.3,29.86,NE,45,4.0,13.0,62,0.08,,---,0.22,VWS V14.01,2013-03-05 21:54:00,
2013-03-05 17:00:00,36.0,24.3,29.86,East,90,4.0,13.0,62,0.08,,---,0.22,VWS V14.01,2013-03-05 22:00:00,
2013-03-05 17:05:00,36.0,24.3,29.87,East,90,4.0,9.0,62,0.04,,---,0.22,VWS V14.01,2013-03-05 22:05:00,
2013-03-05 17:10:00,36.0,24.3,29.86,ENE,68,3.0,13.0,62,0.05,,---,0.23,VWS V14.01,2013-03-05 22:10:00,
2013-03-05 17:15:00,35.0,23.7,29.86,ENE,68,8.0,13.0,63,0.05,,---,0.23,VWS V14.01,2013-03-05 22:15:00,
2013-03-05 17:20:00,35.0,23.7,29.86,ENE,68,3.0,13.0,63,0.05,,---,0.23,VWS V14.01,2013-03-05 22:20:00,
2013-03-05 17:25:00,35.0,23.7,29.87,East,90,6.0,11.0,63,0.03,,---,0.23,VWS V14.01,2013-03-05 22:25:00,
2013-03-05 17:30:00,35.0,23.7,29.86,ENE,68,6.0,11.0,63,0.04,,---,0.24,VWS V14.01,2013-03-05 22:30:00,
2013-03-05 17:35:00,35.0,23.7,29.86,NE,45,4.0,11.0,63,0.04,,---,0.24,VWS V14.01,2013-03-05 22:35:00,
2013-03-05 17:41:00,35.0,24.1,29.87,East,90,5.0,6.0,64,0.02,,---,0.24,VWS V14.01,2013-03-05 22:41:00,
2013-03-05 17:46:00,35.0,23.7,29.86,NE,45,3.0,13.0,63,0.02,,---,0.24,VWS V14.01,2013-03-05 22:46:00,
2013-03-05 17:51:00,35.0,24.1,29.86,NE,45,4.0,13.0,64,0.02,,---,0.24,VWS V14.01,2013-03-05 22:51:00,
2013-03-05 17:56:00,34.0,23.5,29.86,ENE,68,5.0,13.0,65,0.02,,---,0.24,VWS V14.01,2013-03-05 22:56:00,
2013-03-05 18:01:00,34.0,23.9,29.85,ENE,68,4.0,5.0,66,0.02,,---,0.24,VWS V14.01,2013-03-05 23:01:00,
2013-03-05 18:06:00,34.0,23.9,29.85,NNE,22,5.0,11.0,66,0.02,,---,0.24,VWS V14.01,2013-03-05 23:06:00,
2013-03-05 18:11:00,34.0,23.9,29.85,ENE,68,8.0,11.0,66,0.02,,---,0.24,VWS V14.01,2013-03-05 23:11:00,
2013-03-05 18:16:00,34.0,23.9,29.84,ESE,112,5.0,13.0,66,0.02,,---,0.24,VWS V14.01,2013-03-05 23:16:00,
2013-03-05 18:21:00,33.0,22.9,29.84,East,90,11.0,11.0,66,0.01,,---,0.24,VWS V14.01,2013-03-05 23:21:00,
2013-03-05 18:26:00,33.0,22.9,29.85,East,90,6.0,14.0,66,0.01,,---,0.24,VWS V14.01,2013-03-05 23:26:00,
2013-03-05 18:32:00,33.0,22.9,29.85,East,90,3.0,14.0,66,0.01,,---,0.24,VWS V14.01,2013-03-05 23:32:00,
2013-03-05 18:37:00,33.0,23.2,29.84,East,90,6.0,14.0,67,0.01,,---,0.24,VWS V14.01,2013-03-05 23:37:00,
2013-03-05 18:42:00,33.0,23.2,29.85,East,90,4.0,11.0,67,0.00,,---,0.24,VWS V14.01,2013-03-05 23:42:00,
2013-03-05 18:47:00,33.0,23.6,29.86,ESE,112,5.0,11.0,68,0.00,,---,0.24,VWS V14.01,2013-03-05 23:47:00,
2013-03-05 18:52:00,33.0,23.6,29.85,East,90,6.0,11.0,68,0.00,,---,0.24,VWS V14.01,2013-03-05 23:52:00,
2013-03-05 18:57:00,33.0,23.6,29.85,ENE,68,3.0,12.0,68,0.00,,---,0.24,VWS V14.01,2013-03-05 23:57:00,
2013-03-05 19:02:00,33.0,23.6,29.84,East,90,1.0,9.0,68,0.00,,---,0.24,VWS V14.01,2013-03-06 00:02:00,
2013-03-05 19:07:00,33.0,23.6,29.84,ENE,68,7.0,11.0,68,0.00,,---,0.24,VWS V14.01,2013-03-06 00:07:00,
2013-03-05 19:12:00,33.0,23.6,29.84,ESE,112,3.0,12.0,68,0.00,,---,0.24,VWS V14.01,2013-03-06 00:12:00,
2013-03-05 19:17:00,33.0,23.6,29.84,East,90,5.0,12.0,68,0.00,,---,0.24,VWS V14.01,2013-03-06 00:17:00,
2013-03-05 19:23:00,32.0,23.0,29.84,ENE,68,6.0,9.0,69,0.00,,---,0.24,VWS V14.01,2013-03-06 00:23:00,
2013-03-05 19:28:00,32.0,23.0,29.84,ENE,68,3.0,9.0,69,0.00,,---,0.24,VWS V14.01,2013-03-06 00:28:00,
2013-03-05 19:33:00,32.0,23.3,29.84,ENE,68,5.0,9.0,70,0.00,,---,0.24,VWS V14.01,2013-03-06 00:33:00,
2013-03-05 19:38:00,32.0,23.3,29.84,ESE,112,5.0,10.0,70,0.00,,---,0.24,VWS V14.01,2013-03-06 00:38:00,
2013-03-05 19:43:00,32.0,23.7,29.84,East,90,5.0,7.0,71,0.00,,---,0.24,VWS V14.01,2013-03-06 00:43:00,
2013-03-05 19:48:00,32.0,23.7,29.84,ESE,112,1.0,7.0,71,0.00,,---,0.24,VWS V14.01,2013-03-06 00:48:00,
2013-03-05 19:53:00,31.0,23.0,29.84,East,90,5.0,7.0,72,0.00,,---,0.24,VWS V14.01,2013-03-06 00:53:00,
2013-03-05 19:58:00,31.0,23.0,29.84,ESE,112,1.0,10.0,72,0.00,,---,0.24,VWS V14.01,2013-03-06 00:58:00,
2013-03-05 20:03:00,31.0,23.0,29.84,ESE,112,6.0,9.0,72,0.00,,---,0.24,VWS V14.01,2013-03-06 01:03:00,
2013-03-05 20:09:00,31.0,23.4,29.84,ESE,112,1.0,9.0,73,0.00,,---,0.24,VWS V14.01,2013-03-06 01:09:00,
2013-03-05 20:14:00,31.0,23.4,29.84,East,90,1.0,9.0,73,0.00,,---,0.24,VWS V14.01,2013-03-06 01:14:00,
2013-03-05 20:19:00,31.0,23.4,29.84,ENE,68,5.0,9.0,73,0.00,,---,0.24,VWS V14.01,2013-03-06 01:19:00,
2013-03-05 20:24:00,31.0,23.4,29.83,East,90,2.0,8.0,73,0.00,,---,0.24,VWS V14.01,2013-03-06 01:24:00,
2013-03-05 20:29:00,31.0,23.7,29.83,East,90,2.0,8.0,74,0.00,,---,0.24,VWS V14.01,2013-03-06 01:29:00,
2013-03-05 20:34:00,30.0,22.7,29.83,ENE,68,9.0,9.0,74,0.00,,---,0.24,VWS V14.01,2013-03-06 01:34:00,
2013-03-05 20:39:00,30.0,22.7,29.83,ESE,112,1.0,9.0,74,0.00,,---,0.24,VWS V14.01,2013-03-06 01:39:00,
2013-03-05 20:44:00,30.0,22.7,29.83,East,90,3.0,6.0,74,0.00,,---,0.24,VWS V14.01,2013-03-06 01:44:00,
2013-03-05 20:49:00,30.0,23.0,29.83,ENE,68,7.0,9.0,75,0.00,,---,0.24,VWS V14.01,2013-03-06 01:49:00,
2013-03-05 20:55:00,30.0,23.0,29.83,ENE,68,6.0,10.0,75,0.00,,---,0.24,VWS V14.01,2013-03-06 01:55:00,
2013-03-05 21:00:00,30.0,23.0,29.82,East,90,3.0,10.0,75,0.00,,---,0.24,VWS V14.01,2013-03-06 02:00:00,
2013-03-05 21:05:00,30.0,22.7,29.82,ESE,112,3.0,10.0,74,0.00,,---,0.24,VWS V14.01,2013-03-06 02:05:00,
2013-03-05 21:10:00,30.0,22.7,29.82,ENE,68,2.0,10.0,74,0.00,,---,0.24,VWS V14.01,2013-03-06 02:10:00,
2013-03-05 21:15:00,30.0,22.4,29.82,ENE,68,6.0,13.0,73,0.00,,---,0.24,VWS V14.01,2013-03-06 02:15:00,
2013-03-05 21:20:00,30.0,22.4,29.82,ENE,68,6.0,13.0,73,0.00,,---,0.24,VWS V14.01,2013-03-06 02:20:00,
2013-03-05 21:25:00,30.0,22.4,29.82,ENE,68,5.0,9.0,73,0.00,,---,0.24,VWS V14.01,2013-03-06 02:25:00,
2013-03-05 21:30:00,30.0,22.4,29.82,ENE,68,5.0,9.0,73,0.00,,---,0.24,VWS V14.01,2013-03-06 02:30:00,
2013-03-05 21:35:00,30.0,22.4,29.82,East,90,5.0,11.0,73,0.00,,---,0.24,VWS V14.01,2013-03-06 02:35:00,
2013-03-05 21:40:00,30.0,22.4,29.82,East,90,4.0,11.0,73,0.00,,---,0.24,VWS V14.01,2013-03-06 02:40:00,
2013-03-05 21:45:00,30.0,22.4,29.82,ESE,112,3.0,14.0,73,0.00,,---,0.24,VWS V14.01,2013-03-06 02:45:00,
2013-03-05 21:51:00,30.0,22.4,29.81,ENE,68,6.0,14.0,73,0.00,,---,0.24,VWS V14.01,2013-03-06 02:51:00,
2013-03-05 21:56:00,30.0,22.4,29.81,East,90,3.0,14.0,73,0.00,,---,0.24,VWS V14.01,2013-03-06 02:56:00,
2013-03-05 22:01:00,30.0,22.1,29.81,East,90,5.0,8.0,72,0.00,,---,0.24,VWS V14.01,2013-03-06 03:01:00,
2013-03-05 22:06:00,30.0,22.1,29.81,ENE,68,3.0,9.0,72,0.00,,---,0.24,VWS V14.01,2013-03-06 03:06:00,
2013-03-05 22:11:00,30.0,22.4,29.81,ENE,68,5.0,10.0,73,0.00,,---,0.24,VWS V14.01,2013-03-06 03:11:00,
2013-03-05 22:16:00,30.0,22.1,29.80,East,90,10.0,14.0,72,0.00,,---,0.24,VWS V14.01,2013-03-06 03:16:00,
2013-03-05 22:21:00,30.0,21.8,29.80,ENE,68,8.0,13.0,71,0.00,,---,0.24,VWS V14.01,2013-03-06 03:21:00,
2013-03-05 22:26:00,30.0,22.1,29.80,ESE,112,5.0,14.0,72,0.00,,---,0.24,VWS V14.01,2013-03-06 03:26:00,
2013-03-05 22:31:00,30.0,22.1,29.79,ESE,112,3.0,14.0,72,0.00,,---,0.24,VWS V14.01,2013-03-06 03:31:00,
2013-03-05 22:36:00,30.0,21.8,29.80,ESE,112,5.0,14.0,71,0.00,,---,0.24,VWS V14.01,2013-03-06 03:36:00,
2013-03-05 22:42:00,30.0,22.1,29.79,SE,135,4.0,10.0,72,0.00,,---,0.24,VWS V14.01,2013-03-06 03:42:00,
2013-03-05 22:47:00,30.0,21.8,29.79,ESE,112,3.0,11.0,71,0.00,,---,0.24,VWS V14.01,2013-03-06 03:47:00,
2013-03-05 22:52:00,30.0,22.1,29.79,ESE,112,3.0,11.0,72,0.00,,---,0.24,VWS V14.01,2013-03-06 03:52:00,
2013-03-05 22:57:00,30.0,22.1,29.80,ESE,112,2.0,11.0,72,0.00,,---,0.24,VWS V14.01,2013-03-06 03:57:00,
2013-03-05 23:02:00,30.0,22.1,29.80,ESE,112,2.0,8.0,72,0.00,,---,0.24,VWS V14.01,2013-03-06 04:02:00,
2013-03-05 23:07:00,30.0,22.1,29.79,SE,135,1.0,8.0,72,0.00,,---,0.24,VWS V14.01,2013-03-06 04:07:00,
2013-03-05 23:12:00,30.0,22.1,29.79,SE,135,3.0,12.0,72,0.00,,---,0.24,VWS V14.01,2013-03-06 04:12:00,
2013-03-05 23:18:00,30.0,22.1,29.79,East,90,3.0,12.0,72,0.00,,---,0.24,VWS V14.01,2013-03-06 04:18:00,
2013-03-05 23:23:00,30.0,22.1,29.79,ENE,68,6.0,11.0,72,0.00,,---,0.24,VWS V14.01,2013-03-06 04:23:00,
2013-03-05 23:28:00,29.0,21.4,29.79,ENE,68,6.0,11.0,73,0.00,,---,0.24,VWS V14.01,2013-03-06 04:28:00,
2013-03-05 23:33:00,29.0,21.4,29.79,ENE,68,7.0,11.0,73,0.00,,---,0.24,VWS V14.01,2013-03-06 04:33:00,
2013-03-05 23:38:00,29.0,21.4,29.78,ENE,68,6.0,11.0,73,0.00,,---,0.24,VWS V14.01,2013-03-06 04:38:00,
2013-03-05 23:43:00,29.0,21.4,29.79,SE,135,3.0,6.0,73,0.00,,---,0.24,VWS V14.01,2013-03-06 04:43:00,
2013-03-05 23:48:00,29.0,21.8,29.79,East,90,5.0,10.0,74,0.00,,---,0.24,VWS V14.01,2013-03-06 04:48:00,
2013-03-05 23:53:00,29.0,21.8,29.79,ESE,112,7.0,10.0,74,0.00,,---,0.24,VWS V14.01,2013-03-06 04:53:00,
2013-03-05 23:58:00,29.0,21.8,29.78,East,90,3.0,10.0,74,0.00,,---,0.24,VWS V14.01,2013-03-06 04:58:00,